Tracking 17844 objects as of 24-August-2016
HD Live streaming from Space Station
objects crossing your sky now

HYLAS 2

Track HYLAS 2 now!
HYLAS 2 is classified as:


NORAD ID: 38741
Int'l Code: 2012-043B
Perigee: 35,785.0 km
Apogee: 35,802.3 km
Inclination: 0.0 °
Period: 1,436.1 minutes
Semi major axis: 42164 km
RCS: 1.4658 m2 (large)
Launch date: August 2, 2012
Source: United Kingdom (UK)
Launch site: FRENCH GUIANA (FRGUI)

HYLAS 2, owned by Avanti Communications of London, carries 24 Ka-band transponders and is designed to provide broadband links to African customers. Hylas 2 is likely to be operated at 31 degrees east.
Your satellite tracking list
Your tracking list is empty





NASA's NSSDC Master Catalog

Two Line Element Set (TLE):
1 38741U 12043B   16235.99245792  .00000133  00000-0  00000+0 0  9993
2 38741   0.0324 289.1907 0002049 230.6665 200.1488  1.00272232 14909
Source of the keplerian elements: AFSPC

N2YO: 423